Voltar ao catálogo

ARIANE 2 DEB

AtivoGTO
NORAD 33581·DEBRIS·🇫🇷 France

Lançado Jan 27, 1989 de Guiana Space Centre

Loading…

TLE

ObsoletoSource: Space-Track

Época: Sep 13, 2026, 04:45 UTC

1 33581U 89006BZ  26256.19792421 -.00000131  00000-0  17998-3 0  9992
2 33581   8.5219  77.9479 7122705  66.8596 218.7014  2.31191881 44605

Acompanhe ARIANE 2 DEB em tempo real com AllMySat

Download on the App Store